FENGYUN 1C DEB, 31919

Orbit data source: Space-Track

FENGYUN 1C DEB, 31919 is space debris in SSO originally from a launch on Mon, 10 May 1999 UTC launched from the Taiyaun Space Center, China (TSC). Fengyun 1C debris stems from the Chinese weather satellite Fengyun-1C, which was intentionally destroyed by a Chinese anti-satellite missile in 2007. This event dramatically increased the amount of space debris, with thousands of trackable fragments posing hazards to satellites and human spaceflight. The Fengyun 1C debris cloud has become a focal point in discussions about space sustainability and the need for international regulations to prevent the creation of new debris.

Loading next visibility...
Identifier
31919, 1999-025CLW
Orbit
SSO
Country
Flag of CNCN / PRC
Related business
Manufacturer
Unknown
Mission
Spacecraft
Bus & Motor
Unknown
Mass
Unknown
Launch date (UTC)
1999-05-10 (27 years ago)
Launch vehicle
Unknown
Launch site
Taiyaun Space Center, China (TSC)
Object type
Payload
Rocket body
Debris
Shape & HBR
Unknown shape, 0.1 m
Radar Cross Section
Small (<0.1 m²)

Expand to show TLE details & history
Last TLE update: 4 days ago

TLE from 4 days ago
0 FENGYUN 1C DEB
1 31919U 99025CLW 25351.64329243  .00001465  00000-0  40182-3 0  9991
2 31919  99.1018 134.4115 0102350 192.0554 183.4001 14.45773172971521
Epoch: 2025-12-17T15:26Z
TLE epoch observation values (Epoch: 2025-12-17T15:26:20.465Z)
Latitude
15.16455°
Longitude
173.84059°
Altitude
814.46 km
Speed
7.409 km/s
True Right ascension
08h 47m 44s
True Declination
15° 04' 43"
Sunlit
Object was in full shadow at epoch
Visualization orbit readout
Latitude
Unknown
Longitude
Unknown
Altitude
Unknown
Speed
Unknown
Apparent Right ascension
Unknown
Apparent Declination
Unknown
Sunlit
N/A
Visualization observer readout
Local Sidereal Time
09:36:03
Azimuth
Unknown
Elevation
Unknown
Doppler factor
Unknown
Orbital elements
Apogee altitude
809.45 km
Perigee altitude
663.811 km
Semi-major axis
7,114.768 km
Eccentricity
0.01024
Inclination
99.1018°
RAAN
134.4115°
Arg. of periapsis
192.0554°
True anomaly
183.33142°
Mean anomaly
183.4001°
Eccentric anomaly
183.36567°
Mean motion
3.61661 °/min
Orbital period
99.54 mins
BSTAR
0.00040182
Loading maneuver chart data...
Computing Atmospheric mass density...

Documentation

Showing up to 5 results
|